Change the Weather History Date:

Wednesday, May 29, 2013

  Actual Average Record
Temperature  
Mean Temperature 77 °F 70 °F  
Max Temperature 87 °F 80 °F 92 °F (1959)
Min Temperature 67 °F 60 °F 43 °F (1965)
Degree Days  
Heating Degree Days 0 1  
Month to date heating degree days 66 72  
Since 1 July heating degree days 4329 4263  
Cooling Degree Days 12 6  
Month to date cooling degree days 123 101  
Year to date cooling degree days 160 135  
Growing Degree Days 26 (Base 50)    
Moisture  
Dew Point 61 °F    
Average Humidity 60    
Maximum Humidity 78    
Minimum Humidity 42    
Precipitation  
Precipitation 0.00 in 0.16 in 3.61 in (2012)
Month to date precipitation 3.52 4.84  
Year to date precipitation 18.11 19.64  
Sea Level Pressure  
Sea Level Pressure 30.05 in    
Wind  
Wind Speed 6 mph (South)    
Max Wind Speed 15 mph    
Max Gust Speed 24 mph    
Visibility 10 miles    
Events      
T = Trace of Precipitation, MM = Missing Value Source: NWS Daily Summary

Daily Weather History Graph

Daily Weather History Graph

Search for Another Location

Airport or City:

Trip Planner

Search our weather history database for the weather conditions in past years. The results will help you decide how hot, cold, wet, or windy it might be!

Date:

Astronomy

May. 29, 2013 Rise Set
Actual Time 6:22 AM EDT 8:58 PM EDT
Civil Twilight 5:51 AM EDT 9:29 PM EDT
Nautical Twilight 5:13 AM EDT 10:07 PM EDT
Astronomical Twilight 4:30 AM EDT 10:50 PM EDT
Moon 12:22 AM EDT (5/29) 11:18 AM EDT (5/29)
Length of Visible Light 15h 37m
Length of Day
14h 36m
Waning Gibbous, 73% of the Moon is Illuminated
May 29
Waning Gibbous
May 31
Last Quarter
Jun 8
New
Jun 16
First Quarter
Jun 23
Full

Hourly Weather History & Observations

Time (EDT) Temp. Heat Index Dew Point Humidity Pressure Visibility Wind Dir Wind Speed Gust Speed Precip Events Conditions
12:53 AM 73.9 °F - 57.0 °F 55% 30.01 in 10.0 mi Calm Calm - N/A   Clear
1:53 AM 73.0 °F - 57.0 °F 57% 30.03 in 10.0 mi Calm Calm - N/A   Clear
2:53 AM 69.1 °F - 57.9 °F 68% 30.04 in 10.0 mi Calm Calm - N/A   Clear
3:53 AM 66.9 °F - 59.0 °F 76% 30.05 in 10.0 mi Calm Calm - N/A   Clear
4:53 AM 66.9 °F - 59.0 °F 76% 30.06 in 10.0 mi Calm Calm - N/A   Clear
5:53 AM 70.0 °F - 59.0 °F 68% 30.07 in 10.0 mi Calm Calm - N/A   Partly Cloudy
6:53 AM 70.0 °F - 60.1 °F 71% 30.07 in 10.0 mi South 4.6 mph - N/A   Clear
7:53 AM 71.1 °F - 61.0 °F 70% 30.09 in 10.0 mi South 3.5 mph - N/A   Mostly Cloudy
8:53 AM 73.9 °F - 62.1 °F 66% 30.10 in 10.0 mi Variable 4.6 mph - N/A   Mostly Cloudy
9:53 AM 75.9 °F - 62.1 °F 62% 30.11 in 10.0 mi South 8.1 mph - N/A   Clear
10:53 AM 79.0 °F - 63.0 °F 58% 30.09 in 10.0 mi South 10.4 mph - N/A   Clear
11:53 AM 81.0 °F 82.2 °F 63.0 °F 54% 30.09 in 10.0 mi SSW 6.9 mph - N/A   Clear
12:53 PM 84.0 °F 84.4 °F 61.0 °F 46% 30.09 in 10.0 mi SW 11.5 mph 20.7 mph N/A   Clear
1:53 PM 84.0 °F 84.4 °F 61.0 °F 46% 30.06 in 10.0 mi SW 11.5 mph 17.3 mph N/A   Clear
2:53 PM 84.9 °F 85.0 °F 61.0 °F 44% 30.06 in 10.0 mi SW 10.4 mph 20.7 mph N/A   Scattered Clouds
3:53 PM 84.9 °F 85.0 °F 61.0 °F 44% 30.05 in 10.0 mi SSW 11.5 mph - N/A   Partly Cloudy
4:53 PM 86.0 °F 85.7 °F 60.1 °F 41% 30.03 in 10.0 mi South 8.1 mph 17.3 mph N/A   Partly Cloudy
5:53 PM 86.0 °F 86.1 °F 61.0 °F 43% 30.02 in 10.0 mi South 9.2 mph 19.6 mph N/A   Partly Cloudy
6:53 PM 84.9 °F 85.0 °F 61.0 °F 44% 30.01 in 10.0 mi SSW 6.9 mph - N/A   Partly Cloudy
7:53 PM 84.9 °F 85.4 °F 62.1 °F 46% 30.01 in 10.0 mi South 6.9 mph - N/A   Clear
8:53 PM 82.9 °F 84.4 °F 64.0 °F 53% 30.01 in 10.0 mi SSE 4.6 mph - N/A   Clear
9:53 PM 81.0 °F 82.5 °F 64.0 °F 56% 30.01 in 10.0 mi SSE 4.6 mph - N/A   Clear
10:53 PM 79.0 °F - 64.0 °F 60% 30.03 in 10.0 mi SSE 3.5 mph - N/A   Clear
11:53 PM 77.0 °F - 64.9 °F 66% 30.04 in 10.0 mi SE 3.5 mph - N/A   Clear